DW6399 Weather Reports


time (UTC)temp
F
wind
direction
speed
knots
gust
knots
rain 1hr
in
rain 24hr
in
rain mn
in
humidity
%
barometer
mb
20260510064504 52 158 7.8 16.5 0.00 0.00 0.00 49 1016.1
20260510063604 52 157 6.1 13.0 0.00 0.00 0.00 51 1016.3
20260510062725 51 148 7.0 10.4 0.00 0.00 0.00 55 1016.4
20260510061804 50 156 6.1 10.4 0.00 0.00 0.00 54 1016.5
20260510060904 50 165 5.2 9.6 0.00 0.00 0.00 56 1016.5
20260510060004 49 148 3.5 9.6 0.00 0.00 0.00 59 1016.7
20260510055404 48 136 2.6 6.1 0.00 0.00 0.00 60 1016.7
20260510054504 48 153 4.3 7.0 0.00 0.00 0.00 59 1016.8
20260510053604 47 156 4.3 7.8 0.00 0.00 0.00 61 1016.8
20260510052704 46 147 3.5 6.1 0.00 0.00 0.00 63 1017.0
20260510051804 46 153 3.5 5.2 0.00 0.00 0.00 65 1017.0
20260510050904 45 148 2.6 6.1 0.00 0.00 0.00 65 1017.1
20260510050004 45 153 2.6 6.1 0.00 0.00 0.00 65 1017.1
20260510045425 45 155 2.6 4.3 0.00 0.00 0.00 64 1017.3
20260510044504 44 181 2.6 5.2 0.00 0.00 0.00 66 1017.1
20260510043604 42 202 0.9 1.7 0.00 0.00 0.00 68 1017.2
20260510042704 41 202 0.9 2.6 0.00 0.00 0.00 69 1017.5
20260510041804 41 202 0.0 1.7 0.00 0.00 0.00 69 1017.6
20260510040904 41 202 0.9 2.6 0.00 0.00 0.00 69 1017.7
20260510040004 40 202 1.7 2.6 0.00 0.00 0.00 69 1017.8
20260510035404 40 202 0.9 2.6 0.00 0.00 0.00 69 1017.9
20260510034504 39 202 0.9 2.6 0.00 0.00 0.00 71 1017.8
20260510033604 38 202 0.9 2.6 0.00 0.00 0.00 72 1017.7
20260510032704 38 202 1.7 2.6 0.00 0.00 0.00 72 1017.9
20260510031804 37 202 0.9 2.6 0.00 0.00 0.00 72 1017.9
20260510030904 37 202 1.7 2.6 0.00 0.00 0.00 73 1018.0
20260510030004 37 202 0.9 2.6 0.00 0.00 0.00 72 1018.1
20260510025404 37 202 0.9 2.6 0.00 0.00 0.00 73 1018.1
20260510024504 36 202 0.0 1.7 0.00 0.00 0.00 73 1018.2
20260510023625 36 202 0.9 2.6 0.00 0.00 0.00 72 1018.2
20260510022725 36 202 0.9 1.7 0.00 0.00 0.00 72 1018.3
20260510021804 36 202 0.9 2.6 0.00 0.00 0.00 72 1018.2
20260510020904 35 202 0.9 3.5 0.00 0.00 0.00 73 1018.3
20260510020004 35 200 1.7 3.5 0.00 0.00 0.00 74 1018.4
20260510015425 35 205 0.9 3.5 0.00 0.00 0.00 72 1018.4
20260510014504 35 205 0.9 2.6 0.00 0.00 0.00 73 1018.4
20260510013604 35 176 0.9 3.5 0.00 0.00 0.00 73 1018.5
20260510012725 35 146 0.9 3.5 0.00 0.00 0.00 73 1018.5
20260510011804 35 146 0.9 3.5 0.00 0.00 0.00 72 1018.6
20260510010904 35 144 0.0 1.7 0.00 0.00 0.00 71 1018.6
20260510010004 36 144 0.0 1.7 0.00 0.00 0.00 70 1018.7
20260510005404 36 144 0.9 2.6 0.00 0.00 0.00 69 1018.8
20260510004504 36 144 0.9 4.3 0.00 0.00 0.00 67 1018.8
20260510003604 36 147 1.7 2.6 0.00 0.00 0.00 66 1018.8
20260510002704 36 147 0.9 2.6 0.00 0.00 0.00 66 1018.8
20260510001804 36 150 1.7 2.6 0.00 0.00 0.00 66 1018.8
20260510000904 37 157 1.7 5.2 0.00 0.00 0.00 65 1018.9
20260510000004 36 157 1.7 4.3 0.00 0.00 0.00 66 1018.9
20260509235404 36 153 1.7 4.3 0.00 0.00 0.00 68 1018.9
20260509234504 36 116 0.9 3.5 0.00 0.00 0.00 67 1019.1
20260509233604 36 331 0.9 2.6 0.00 0.00 0.00 68 1019.2
20260509232704 36 321 0.9 1.7 0.00 0.00 0.00 69 1019.3
20260509231804 36 321 0.9 2.6 0.00 0.00 0.00 69 1019.4
20260509230904 35 321 0.9 3.5 0.00 0.00 0.00 69 1019.5
20260509230025 35 320 0.0 1.7 0.00 0.00 0.00 70 1019.6
20260509225404 35 0 0.0 0.0 0.00 0.00 0.00 70 1019.6
20260509224504 36 0 0.0 0.0 0.00 0.00 0.00 68 1019.8
20260509223604 37 0 0.0 0.0 0.00 0.00 0.00 67 1019.8
20260509222704 37 0 0.0 0.0 0.00 0.00 0.00 67 1019.8
20260509221804 37 0 0.0 0.0 0.00 0.00 0.00 67 1019.9
20260509220904 38 0 0.0 0.0 0.00 0.00 0.00 69 1019.9
20260509220004 38 0 0.0 0.0 0.00 0.00 0.00 65 1020.0
20260509215404 38 0 0.0 0.0 0.00 0.00 0.00 63 1020.1
20260509214504 38 0 0.0 0.0 0.00 0.00 0.00 64 1020.2
20260509213604 38 0 0.0 0.0 0.00 0.00 0.00 64 1020.3
20260509212704 38 0 0.0 0.0 0.00 0.00 0.00 63 1020.3
20260509211804 38 0 0.0 0.0 0.00 0.00 0.00 63 1020.2
20260509210904 38 0 0.0 0.0 0.00 0.00 0.00 64 1020.4
20260509210004 38 0 0.0 0.0 0.00 0.00 0.00 70 1020.3
20260509205425 39 0 0.0 0.0 0.00 0.00 0.00 66 1020.3
20260509204504 39 0 0.0 0.0 0.00 0.00 0.00 65 1020.4
20260509203604 39 0 0.0 0.0 0.00 0.00 0.00 63 1020.4
20260509202704 39 0 0.0 0.0 0.00 0.00 0.00 64 1020.3
20260509201804 40 0 0.0 0.0 0.00 0.00 0.00 65 1020.4
20260509200904 41 321 0.0 1.7 0.00 0.00 0.00 63 1020.4
20260509200025 41 320 0.9 1.7 0.00 0.00 0.00 60 1020.4
20260509195404 40 321 0.0 1.7 0.00 0.00 0.00 61 1020.4
20260509194504 40 0 0.0 0.0 0.00 0.00 0.00 62 1020.4
20260509193604 41 0 0.0 0.0 0.00 0.00 0.00 62 1020.4
20260509192704 42 321 0.0 0.9 0.00 0.00 0.00 62 1020.4
20260509191804 42 320 0.0 0.9 0.00 0.00 0.00 60 1020.4
20260509190925 43 321 1.7 3.5 0.00 0.00 0.00 59 1020.3
20260509190004 44 320 0.9 2.6 0.00 0.00 0.00 53 1020.3
20260509185404 44 320 0.0 1.7 0.00 0.00 0.00 54 1020.4
20260509184525 45 321 0.0 1.7 0.00 0.00 0.00 54 1020.4
20260509183604 47 321 0.0 1.7 0.00 0.00 0.00 51 1020.4
20260509182725 48 0 0.0 0.0 0.00 0.00 0.00 47 1020.4
20260509181804 50 321 0.9 2.6 0.00 0.00 0.00 46 1020.3
20260509180904 51 321 2.6 4.3 0.00 0.00 0.00 41 1020.2
20260509180004 52 319 4.3 8.7 0.00 0.00 0.00 39 1020.2
20260509175404 53 326 7.0 10.4 0.00 0.00 0.00 38 1020.2
20260509174504 53 324 6.1 10.4 0.00 0.00 0.00 37 1020.0
20260509173603 54 322 7.8 12.2 0.00 0.00 0.00 37 1020.1
20260509172725 54 317 6.1 12.2 0.00 0.00 0.00 38 1020.1
20260509171825 55 316 6.1 9.6 0.00 0.00 0.00 37 1020.2
20260509170904 55 319 6.1 9.6 0.00 0.00 0.00 38 1020.2
20260509170025 55 314 6.1 9.6 0.00 0.00 0.00 38 1020.2
20260509165404 55 306 6.1 11.3 0.00 0.00 0.00 39 1020.2
20260509164504 56 308 4.3 10.4 0.00 0.00 0.00 39 1020.2
20260509163604 56 317 5.2 9.6 0.00 0.00 0.00 39 1020.2
20260509162704 58 289 4.3 8.7 0.00 0.00 0.00 36 1020.3
20260509161804 59 159 5.2 9.6 0.00 0.00 0.00 36 1020.1
20260509160904 60 172 4.3 13.0 0.00 0.00 0.00 36 1020.2
20260509160004 61 174 5.2 12.2 0.00 0.00 0.00 34 1020.3
20260509155404 61 169 5.2 12.2 0.00 0.00 0.00 34 1020.3
20260509154504 62 174 3.5 12.2 0.00 0.00 0.00 34 1020.5
20260509153625 61 170 4.3 12.2 0.00 0.00 0.00 34 1020.5
20260509152725 61 157 4.3 12.2 0.00 0.00 0.00 36 1020.6
20260509151804 60 171 3.5 7.0 0.00 0.00 0.00 38 1020.8
20260509150903 59 172 4.3 8.7 0.00 0.00 0.00 37 1021.0
20260509150004 60 174 2.6 8.7 0.00 0.00 0.00 37 1021.1
20260509145404 60 218 1.7 3.5 0.00 0.00 0.00 37 1021.1
20260509144503 60 172 1.7 5.2 0.00 0.00 0.00 35 1021.2
20260509143625 60 176 3.5 8.7 0.00 0.00 0.00 34 1021.4
20260509142703 60 149 1.7 5.2 0.00 0.00 0.00 38 1021.4
20260509141804 59 139 2.6 4.3 0.00 0.00 0.00 37 1021.5
20260509140904 60 140 4.3 8.7 0.00 0.00 0.00 36 1021.7
20260509140005 60 154 4.3 10.4 0.00 0.00 0.00 35 1021.8
20260509135403 60 169 5.2 7.8 0.00 0.00 0.00 35 1022.0
20260509134504 61 170 4.3 8.7 0.00 0.00 0.00 35 1022.0
20260509133603 60 235 2.6 6.1 0.00 0.00 0.00 35 1022.3
20260509132704 60 184 2.6 9.6 0.00 0.00 0.00 34 1022.4
20260509131803 60 183 3.5 9.6 0.00 0.00 0.00 35 1022.5
20260509130904 60 175 5.2 12.2 0.00 0.00 0.00 34 1022.6
20260509130004 60 163 6.1 12.2 0.00 0.00 0.00 34 1022.8
20260509125404 60 170 5.2 12.2 0.00 0.00 0.00 35 1022.8
20260509124525 60 253 3.5 9.6 0.00 0.00 0.00 35 1022.8
20260509123603 60 229 3.5 9.6 0.00 0.00 0.00 34 1023.0
20260509122704 60 186 3.5 9.6 0.00 0.00 0.00 35 1023.1
20260509121804 59 169 4.3 10.4 0.00 0.00 0.00 35 1023.3
20260509120924 59 244 2.6 8.7 0.00 0.00 0.00 37 1023.4
20260509120025 59 201 3.5 8.7 0.00 0.00 0.00 36 1023.5
20260509115403 59 177 3.5 8.7 0.00 0.00 0.00 36 1023.5
20260509114525 59 201 2.6 7.8 0.00 0.00 0.00 36 1023.5
20260509113604 59 176 3.5 7.8 0.00 0.00 0.00 36 1023.6
20260509112704 59 191 3.5 7.0 0.00 0.00 0.00 35 1023.7
20260509111803 59 177 4.3 10.4 0.00 0.00 0.00 34 1023.8
20260509110903 59 174 2.6 8.7 0.00 0.00 0.00 37 1023.7
20260509110004 59 179 3.5 7.8 0.00 0.00 0.00 36 1023.8
20260509105404 58 202 2.6 9.6 0.00 0.00 0.00 36 1023.9
20260509104504 58 195 3.5 11.3 0.00 0.00 0.00 36 1024.0
20260509103603 58 199 3.5 9.6 0.00 0.00 0.00 33 1024.1
20260509102704 58 196 4.3 8.7 0.00 0.00 0.00 35 1024.1
20260509101803 58 165 5.2 13.0 0.00 0.00 0.00 35 1024.2
20260509100903 58 166 2.6 7.8 0.00 0.00 0.00 34 1024.3
20260509100005 58 176 5.2 12.2 0.00 0.00 0.00 33 1024.4
20260509095403 58 164 7.8 13.0 0.00 0.00 0.00 35 1024.4
20260509094504 59 165 7.0 13.0 0.00 0.00 0.00 35 1024.5
20260509093603 58 179 5.2 12.2 0.00 0.00 0.00 35 1024.5
20260509092704 58 170 7.8 16.5 0.00 0.00 0.00 33 1024.6
20260509091803 58 175 5.2 12.2 0.00 0.00 0.00 34 1024.6
20260509090903 58 170 7.0 16.5 0.00 0.00 0.00 35 1024.8
20260509090004 58 191 3.5 9.6 0.00 0.00 0.00 37 1024.8
20260509085403 58 187 4.3 12.2 0.00 0.00 0.00 38 1024.8
20260509084503 57 177 6.1 13.9 0.00 0.00 0.00 37 1025.0
20260509083625 57 165 7.0 13.9 0.00 0.00 0.00 36 1025.1
20260509082704 57 168 6.1 12.2 0.00 0.00 0.00 36 1025.2
20260509081804 57 182 4.3 12.2 0.00 0.00 0.00 36 1025.2
20260509080903 57 174 6.1 12.2 0.00 0.00 0.00 37 1025.3
20260509080025 56 169 7.0 13.0 0.00 0.00 0.00 36 1025.3
20260509075404 56 155 7.8 13.0 0.00 0.00 0.00 38 1025.3
20260509074525 56 163 7.0 14.8 0.00 0.00 0.00 37 1025.4
20260509073603 56 161 6.1 13.0 0.00 0.00 0.00 38 1025.5
20260509072704 55 166 7.0 13.9 0.00 0.00 0.00 37 1025.5
20260509071825 54 166 7.8 14.8 0.00 0.00 0.00 39 1025.6
20260509070903 54 167 9.6 15.6 0.00 0.00 0.00 39 1025.7
20260509070003 53 165 8.7 16.5 0.00 0.00 0.00 40 1025.6
20260509065453 53 164 7.8 13.9 0.00 0.00 0.00 41 1025.7